Harlan, KY

9:55 AM EST on November 15, 2019 (GMT -0500)
Harlan

Weather History for KI35 - September, 2019

Change the Weather History Date:

Thursday, September 5, 2019

  Actual Average (WUND) Record (WUND)
Temperature  
Mean Temperature 72 °F -  
Max Temperature 81 °F - - (-1)
Min Temperature 63 °F - - (-1)
Cooling Degree Days 7    
Growing Degree Days 22 (Base 50)    
Moisture  
Dew Point 64 °F    
Average Humidity 78    
Maximum Humidity 100    
Minimum Humidity 48    
Precipitation  
Precipitation 0.00 in - - ()
Sea Level Pressure  
Sea Level Pressure 30.03 in    
Wind  
Wind Speed 2 mph ()    
Max Wind Speed 9 mph    
Max Gust Speed -    
Visibility 7.3 miles    
Events      
Averages and records for this station are not official NWS values.
T = Trace of Precipitation, MM = Missing Value Source: Averaged Metar Reports

Daily Weather History Graph

Daily Weather History Graph

Search for Another Location

Airport or City:

Astronomy

Sep. 05, 2019 Rise Set
Actual Time 7:07 AM EDT 7:56 PM EDT
Civil Twilight 6:41 AM EDT 8:22 PM EDT
Nautical Twilight 6:09 AM EDT 8:53 PM EDT
Astronomical Twilight 5:37 AM EDT 9:25 PM EDT
Moon 2:02 PM EDT (9/5) No Moon Set
Length of Visible Light 13h 41m
Length of Day
12h 48m
Waxing Crescent, 45% of the Moon is Illuminated
Sep 5
Waxing Crescent
Sep 5
First Quarter
Sep 14
Full
Sep 21
Last Quarter
Sep 28
New

Hourly Weather History & Observations

Time (EDT) Temp. Heat Index Dew Point Humidity Pressure Visibility Wind Dir Wind Speed Gust Speed Precip Events Conditions
12:15 AM 70.0 °F - 69.3 °F 98% 30.04 in 5.0 mi Calm Calm - N/A   Clear
12:35 AM 70.0 °F - 69.4 °F 98% 30.04 in 5.0 mi Calm Calm - N/A   Clear
12:55 AM 70.3 °F - 69.3 °F 96% 30.04 in 7.0 mi Calm Calm - N/A   Scattered Clouds
1:15 AM 69.8 °F - 69.3 °F 98% 30.04 in 5.0 mi Calm Calm - N/A   Overcast
1:35 AM 70.5 °F - 69.3 °F 96% 30.05 in 7.0 mi Calm Calm - N/A   Overcast
1:55 AM 70.0 °F - 68.9 °F 96% 30.05 in 7.0 mi Calm Calm - N/A   Overcast
2:15 AM 70.7 °F - 68.9 °F 94% 30.05 in 7.0 mi Calm Calm - N/A   Scattered Clouds
2:35 AM 70.9 °F - 68.2 °F 91% 30.04 in 10.0 mi Calm Calm - N/A   Clear
2:55 AM 69.8 °F - 67.5 °F 92% 30.04 in 10.0 mi Calm Calm - N/A   Clear
3:35 AM 68.5 °F - 67.1 °F 95% 30.03 in 10.0 mi Calm Calm - N/A   Clear
3:55 AM 68.4 °F - 67.3 °F 96% 30.04 in 7.0 mi Calm Calm - N/A   Clear
4:15 AM 67.6 °F - 67.1 °F 98% 30.04 in 5.0 mi Calm Calm - N/A   Clear
4:35 AM 67.5 °F - 66.6 °F 97% 30.03 in 5.0 mi Calm Calm - N/A   Clear
4:55 AM 66.6 °F - 66.2 °F 99% 30.03 in 0.8 mi Calm Calm - N/A   Mostly Cloudy
5:15 AM 66.4 °F - 66.2 °F 99% 30.03 in 0.5 mi Calm Calm - N/A   Overcast
5:35 AM 66.2 °F - 66.2 °F 100% 30.03 in 0.2 mi Calm Calm - N/A   Overcast
5:55 AM 65.8 °F - 65.8 °F 100% 30.03 in 0.2 mi Calm Calm - N/A   Overcast
6:15 AM 65.5 °F - 65.5 °F 100% 30.03 in 0.2 mi Calm Calm - N/A   Overcast
6:35 AM 64.9 °F - 64.9 °F 100% 30.03 in 0.8 mi Calm Calm - N/A   Overcast
6:55 AM 64.6 °F - 64.6 °F 100% 30.04 in 0.2 mi Calm Calm - N/A   Overcast
7:15 AM 64.4 °F - 64.4 °F 100% 30.03 in 0.2 mi Calm Calm - N/A   Overcast
7:35 AM 64.8 °F - 64.8 °F 100% 30.04 in 0.2 mi Calm Calm - N/A   Overcast
7:55 AM 64.8 °F - 64.8 °F 100% 30.05 in 0.2 mi Calm Calm - N/A   Overcast
8:15 AM 64.2 °F - 64.2 °F 100% 30.05 in 0.2 mi Calm Calm - N/A   Overcast
8:35 AM 63.7 °F - 63.7 °F 100% 30.06 in 1.2 mi Calm Calm - N/A   Mostly Cloudy
8:55 AM 64.2 °F - 64.2 °F 100% 30.06 in 0.2 mi Calm Calm - N/A   Overcast
9:15 AM 65.7 °F - 65.7 °F 100% 30.06 in 0.5 mi Calm Calm - N/A   Overcast
9:35 AM 66.2 °F - 65.5 °F 98% 30.06 in 5.0 mi Calm Calm - N/A   Scattered Clouds
9:55 AM 66.7 °F - 65.3 °F 95% 30.06 in 3.0 mi Calm Calm - N/A   Scattered Clouds
10:15 AM 69.4 °F - 65.5 °F 87% 30.06 in 7.0 mi Calm Calm - N/A   Scattered Clouds
10:35 AM 69.8 °F - 65.3 °F 86% 30.05 in 10.0 mi Calm Calm - N/A   Scattered Clouds
10:55 AM 71.1 °F - 66.0 °F 84% 30.05 in 10.0 mi Calm Calm - N/A   Scattered Clouds
11:15 AM 73.0 °F - 66.0 °F 79% 30.05 in 10.0 mi Calm Calm - N/A   Clear
11:35 AM 75.4 °F - 67.6 °F 77% 30.05 in 10.0 mi ESE 4.6 mph - N/A   Scattered Clouds
11:55 AM 76.6 °F - 65.7 °F 69% 30.05 in 10.0 mi North 9.2 mph - N/A   Mostly Cloudy
12:15 PM 75.7 °F - 65.3 °F 70% 30.05 in 10.0 mi North 8.1 mph - N/A   Scattered Clouds
12:35 PM 75.6 °F - 65.3 °F 70% 30.04 in 10.0 mi North 9.2 mph - N/A   Clear
12:55 PM 77.2 °F - 64.9 °F 66% 30.04 in 10.0 mi East 4.6 mph - N/A   Clear
1:15 PM 77.4 °F - 64.2 °F 64% 30.04 in 10.0 mi NE 4.6 mph - N/A   Scattered Clouds
1:30 PM 76.6 °F - 64.0 °F 65% 30.04 in 10.0 mi North 4.6 mph - N/A   Scattered Clouds
1:55 PM 77.5 °F - 64.0 °F 63% 30.03 in 10.0 mi NNE 3.5 mph - N/A   Scattered Clouds
2:15 PM 76.1 °F - 63.5 °F 65% 30.03 in 10.0 mi ENE 8.1 mph - N/A   Mostly Cloudy
2:35 PM 78.8 °F - 64.2 °F 61% 30.03 in 10.0 mi NE 4.6 mph - N/A   Scattered Clouds
2:55 PM 77.2 °F - 64.0 °F 64% 30.03 in 10.0 mi ENE 9.2 mph - N/A   Scattered Clouds
3:15 PM 76.8 °F - 63.3 °F 63% 30.02 in 10.0 mi NE 5.8 mph - N/A   Mostly Cloudy
3:35 PM 80.6 °F 81.9 °F 63.0 °F 55% 30.01 in 10.0 mi NNW 3.5 mph - N/A   Scattered Clouds
3:55 PM 80.2 °F 81.4 °F 62.4 °F 54% 30.01 in 10.0 mi NNE 9.2 mph - N/A   Clear
4:15 PM 81.5 °F 82.9 °F 63.9 °F 55% 30.00 in 10.0 mi NE 9.2 mph - N/A   Scattered Clouds
4:35 PM 79.9 °F - 62.1 °F 54% 30.00 in 10.0 mi NW 6.9 mph - N/A   Scattered Clouds
4:55 PM 81.9 °F 83.1 °F 63.0 °F 53% 30.00 in 10.0 mi North 8.1 mph - N/A   Scattered Clouds
5:15 PM 80.6 °F 81.5 °F 61.2 °F 51% 30.00 in 10.0 mi NNE 5.8 mph - N/A   Scattered Clouds
5:35 PM 81.1 °F 81.9 °F 60.8 °F 50% 30.00 in 10.0 mi NW 5.8 mph - N/A   Clear
5:55 PM 81.3 °F 81.8 °F 59.9 °F 48% 30.00 in 10.0 mi NW 4.6 mph - N/A   Clear
6:15 PM 80.4 °F 81.0 °F 59.0 °F 48% 30.00 in 10.0 mi North 4.6 mph - N/A   Clear
6:35 PM 80.8 °F 81.3 °F 59.4 °F 48% 30.00 in 10.0 mi NW 5.8 mph - N/A   Clear
6:55 PM 79.5 °F - 58.6 °F 49% 30.00 in 10.0 mi Calm Calm - N/A   Clear
7:15 PM 78.4 °F - 58.8 °F 51% 30.00 in 10.0 mi North 6.9 mph - N/A   Clear
7:35 PM 77.2 °F - 59.0 °F 53% 30.00 in 10.0 mi NNW 5.8 mph - N/A   Clear
7:55 PM 75.0 °F - 59.2 °F 58% 30.01 in 10.0 mi Calm Calm - N/A   Clear
8:15 PM 74.3 °F - 59.0 °F 59% 30.01 in 10.0 mi North 6.9 mph - N/A   Clear
8:35 PM 73.6 °F - 59.0 °F 60% 30.01 in 10.0 mi North 4.6 mph - N/A   Clear
8:55 PM 72.9 °F - 59.0 °F 62% 30.02 in 10.0 mi NNE 3.5 mph - N/A   Clear
9:15 PM 72.0 °F - 59.0 °F 64% 30.02 in 10.0 mi North 6.9 mph - N/A   Clear
9:35 PM 70.9 °F - 59.4 °F 67% 30.03 in 10.0 mi North 4.6 mph - N/A   Clear
9:55 PM 69.8 °F - 59.5 °F 70% 30.03 in 10.0 mi NNE 4.6 mph - N/A   Clear
10:15 PM 69.6 °F - 59.2 °F 69% 30.03 in 10.0 mi Calm Calm - N/A   Clear
10:35 PM 68.9 °F - 59.5 °F 72% 30.03 in 10.0 mi NNE 3.5 mph - N/A   Clear
10:55 PM 68.0 °F - 59.5 °F 74% 30.03 in 10.0 mi North 3.5 mph - N/A   Clear
11:15 PM 66.6 °F - 59.4 °F 78% 30.03 in 10.0 mi NNW 3.5 mph - N/A   Clear
11:35 PM 65.5 °F - 59.5 °F 81% 30.02 in 10.0 mi Calm Calm - N/A   Clear
11:55 PM 64.4 °F - 59.4 °F 84% 30.02 in 10.0 mi Calm Calm - N/A   Clear